Location: Borowce
(50.8255°N, 19.6209°E)
Time: 22:29:43
(UTC+00:00)

Cosmos 2344 - Pass Details

Date: 19 May 2025
Orbit: 1200 x 3042 km, 63.3° (Epoch: 16 June)

Event Time Altitude Azimuth Distance (km) Brightness Sun altitude
Rises 19:12:28 0° 228° (SW) 4,386 6.5 -6.1°
Reaches altitude 10° 19:15:24 10° 229° (SW) 3,291 5.9 -6.4°
Maximum altitude 19:22:55 78° 317° (NW) 1,230 3.7 -7.3°
Drops below altitude 10° 19:30:21 10° 44° (NE) 3,255 5.8 -8.1°
Sets 19:33:15 0° 46° (NE) 4,335 6.4 -8.4°
